"Time","Temp","Dewpoint","Humidity","Pressure","Direction","Speed","Gust","Precip","PrecipRate"
"00:04:56","44","33.4","66","29.92","80","0","0","0.00","0.00"
"00:09:57","43.7","33","65.8","29.92","80","0","0","0.00","0.00"
"00:14:58","43.5","33","66.2","29.92","80","0","0","0.00","0.00"
"00:19:56","43.2","33.3","67.7","29.92","80","0","0","0.00","0.00"
"00:24:57","42.8","33.5","69.5","29.92","80","0","0","0.00","0.00"
"00:29:57","42.4","33.5","70.5","29.92","80","0","0","0.00","0.00"
"00:34:56","42.1","33.3","70.7","29.92","80","0","0","0.00","0.00"
"00:39:57","41.8","33.4","72","29.92","80","0","0","0.00","0.00"
"00:44:58","41.6","33.2","72","29.92","80","0","0","0.00","0.00"
"00:49:59","41.6","32.9","71.1","29.92","80","0","0","0.00","0.00"
"00:54:56","41.7","33","71","29.92","80","0","0","0.00","0.00"
"00:59:56","41.9","33.2","71","29.93","80","0","0","0.00","0.00"
"01:04:57","41.9","33.2","71","29.93","80","0","0","0.00","0.00"
"01:09:57","42","33.3","71","29.93","80","0","0","0.00","0.00"
"01:14:58","41.9","34.2","73.7","29.94","80","0","0","0.00","0.00"
"01:19:57","41.7","34.3","74.8","29.94","80","0","0","0.00","0.00"
"01:24:59","41.6","33.5","72.7","29.94","80","0","0","0.00","0.00"
"01:29:58","41.9","33.9","73.1","29.94","80","0","0","0.00","0.00"
"01:34:56","42","34.3","74","29.94","80","0","0","0.00","0.00"
"01:39:57","41.9","34.8","75.7","29.94","80","0","0","0.00","0.00"
"01:44:58","41.7","35","77","29.94","80","0","0","0.00","0.00"
"01:49:56","41.4","34.9","77.3","29.94","80","0","0","0.00","0.00"
"01:54:57","41.3","34.8","77.4","29.94","80","0","0","0.00","0.00"
"01:59:57","41.2","34.5","77","29.94","80","0","0","0.00","0.00"
"02:04:59","41","34.3","77","29.94","80","0","0","0.00","0.00"
"02:09:59","41","34.3","77","29.94","80","0","0","0.00","0.00"
"02:14:56","40.9","34.1","76.8","29.94","80","0","0","0.00","0.00"
"02:19:57","40.9","33.7","75.5","29.94","80","0","0","0.00","0.00"
"02:24:58","40.9","33.8","75.6","29.94","80","0","0","0.00","0.00"
"02:29:59","40.9","33.7","75.4","29.94","34","0","0","0.00","0.00"
"02:34:57","41.1","33.2","73.6","29.94","34","0","0","0.00","0.00"
"02:39:58","41.3","33.3","73.1","29.94","33","0","0","0.00","0.00"
"02:44:58","41.4","33.4","73","29.94","353","1.6","4.8","0.00","0.00"
"02:49:56","41.9","33.6","72.2","29.94","4","1.4","4.8","0.00","0.00"
"02:54:56","42.3","33.6","71.2","29.94","354","1.4","4.8","0.00","0.00"
"02:59:57","43","33.9","70","29.94","19","1.6","4.8","0.00","0.00"
"03:04:57","43.5","34","69","29.94","313","1.3","4.8","0.00","0.00"
"03:09:56","44","33.9","67.6","29.94","341","1.8","4.6","0.00","0.00"
"03:14:57","44.4","34.1","67","29.94","342","1.8","4.8","0.00","0.00"
"03:19:58","44.8","34.1","66.1","29.94","36","1.4","3.6","0.00","0.00"
"03:24:58","45","34.3","66","29.94","57","1.3","3.6","0.00","0.00"
"03:29:58","45","34.3","66","29.94","268","0.6","3.6","0.00","0.00"
"03:34:56","44.8","34.2","66","29.94","225","0.5","2.4","0.00","0.00"
"03:39:57","44.7","34","66","29.94","225","0.5","2.3","0.00","0.00"
"03:44:58","44.5","33.9","66.1","29.95","225","0","0","0.00","0.00"
"03:49:58","44.4","34.1","67","29.95","225","0","0","0.00","0.00"
"03:54:59","44","33.8","67","29.95","225","0","1.2","0.00","0.00"
"03:59:59","43.7","33.7","67.8","29.95","225","0","1.2","0.00","0.00"
"04:04:56","43.3","33.6","68.3","29.95","225","0","2.4","0.00","0.00"
"04:09:56","43.1","33.5","68.8","29.95","225","0.3","2.3","0.00","0.00"
"04:14:59","42.9","33.4","69","29.97","225","1","2.4","0.00","0.00"
"04:19:58","42.7","33.5","69.7","29.97","225","1.2","2.4","0.00","0.00"
"04:24:58","42.6","33.4","69.8","29.97","225","0","1.2","0.00","0.00"
"04:29:58","42.4","33.5","70.5","29.97","225","0","0","0.00","0.00"
"04:34:57","42.1","33.4","71","29.97","225","0","0","0.00","0.00"
"04:39:57","41.9","33.2","71","29.97","225","0.1","1.2","0.00","0.00"
"04:44:58","41.8","33.2","71.3","29.97","225","0","1.2","0.00","0.00"
"04:49:56","41.6","33.4","72.6","29.97","225","0.1","1.2","0.00","0.00"
"04:54:59","41.1","33.4","74","29.97","225","0","0","0.00","0.00"
"04:59:57","40.8","33.2","74","29.97","225","0","0","0.00","0.00"
"05:04:56","40.6","33.2","74.5","29.96","225","0","0","0.00","0.00"
"05:09:59","40.5","33.2","75","29.96","225","0","0","0.00","0.00"
"05:14:58","40.4","33.1","75","29.97","225","0","0","0.00","0.00"
"05:19:58","40.2","32.9","75","29.97","225","0","0","0.00","0.00"
"05:24:59","40.1","32.8","75","29.97","225","0","0","0.00","0.00"
"05:29:59","40","32.7","75.1","29.98","225","0","0","0.00","0.00"
"05:34:58","39.9","32.9","76","29.98","225","0.5","1.2","0.00","0.00"
"05:39:59","39.8","32.8","76","29.98","226","0","1.2","0.00","0.00"
"05:44:59","39.7","32.8","76","29.98","226","0.1","1.2","0.00","0.00"
"05:49:58","39.8","32.6","75.4","29.97","226","0","1.2","0.00","0.00"
"05:54:58","40","32.7","75","29.97","226","0","0","0.00","0.00"
"05:59:59","40.3","33","74.9","29.97","225","0.1","1.2","0.00","0.00"
"06:04:58","40.5","33","74.4","29.96","226","0","1.2","0.00","0.00"
"06:09:59","40.6","33","74","29.96","180","0","0","0.00","0.00"
"06:14:56","40.6","33","74.2","29.97","180","0","0","0.00","0.00"
"06:19:59","40.4","33","74.8","29.97","180","0","0","0.00","0.00"
"06:24:56","40","32.7","75.1","29.97","180","0","0","0.00","0.00"
"06:29:57","39.6","32.7","76","29.99","180","0","0","0.00","0.00"
"06:34:56","39.3","32.4","76","29.99","180","0","0","0.00","0.00"
"06:39:58","39.1","32.5","76.7","29.99","180","0","0","0.00","0.00"
"06:44:59","38.9","32.4","77.2","29.99","180","0","0","0.00","0.00"
"06:49:58","38.8","32.2","77","29.98","180","0","0","0.00","0.00"
"06:54:59","38.7","32.4","77.8","29.98","180","0","0","0.00","0.00"
"06:59:56","38.6","32.3","78","29.98","180","0","0","0.00","0.00"
"07:04:58","38.5","32.5","78.6","29.98","180","0","0","0.00","0.00"
"07:09:57","38.4","32.5","79","29.98","180","0","0","0.00","0.00"
"07:14:57","38.4","32.7","79.7","30.00","180","0","0","0.00","0.00"
"07:19:59","38.4","33","80.7","30.00","180","0","0","0.00","0.00"
"07:24:59","38.3","33","81","30.00","180","0","0","0.00","0.00"
"07:29:58","38.4","33.1","80.9","30.02","180","0","0","0.00","0.00"
"07:34:56","38.6","33","80","30.02","180","0","0","0.00","0.00"
"07:39:56","38.8","33.5","80.9","30.02","180","0","0","0.00","0.00"
"07:44:59","39","33.5","80.3","30.02","180","0","0","0.00","0.00"
"07:49:57","39.3","33.9","80.6","30.02","184","0.5","4.8","0.00","0.00"
"07:54:57","39.8","33.9","79.3","30.02","184","0.7","3.6","0.00","0.00"
"07:59:57","40.3","34.2","78.7","30.04","184","0","0","0.00","0.00"
"08:04:56","40.7","34.3","77.7","30.04","184","0","0","0.00","0.00"
"08:09:59","41","34.5","77.5","30.04","184","0.7","2.4","0.00","0.00"
"08:14:59","41.4","34.8","77.3","30.05","184","0.6","2.4","0.00","0.00"
"08:19:59","41.7","34.9","76.9","30.05","184","0","1.2","0.00","0.00"
"08:24:59","42.1","35.1","76.1","30.05","184","0","1.2","0.00","0.00"
"08:29:59","42.5","35.3","75.6","30.05","226","0.9","3.6","0.00","0.00"
"08:34:57","42.8","35.5","75.2","30.04","329","1.7","4.8","0.00","0.00"
"08:39:58","42.9","35.2","74.2","30.04","334","1.9","4.8","0.00","0.00"
"08:44:58","42.9","35.1","73.7","30.07","344","2.1","6","0.00","0.00"
"08:49:57","42.9","34.9","73.2","30.07","355","1.1","3.6","0.00","0.00"
"08:54:56","42.8","34.9","73.4","30.07","355","0.2","1.2","0.00","0.00"
"08:59:56","42.8","35.1","74.2","30.07","355","0","0","0.00","0.00"
"09:04:58","42.8","35.1","74.2","30.07","355","0.3","2.4","0.00","0.00"
"09:09:57","42.8","35.2","74.5","30.07","355","0.1","1.2","0.00","0.00"
"09:14:57","42.8","35.2","74.2","30.08","355","0.6","2.4","0.00","0.00"
"09:19:59","42.9","35.2","74","30.08","15","0.8","3.6","0.00","0.00"
"09:24:59","43.1","35.4","74","30.08","27","1.6","4.8","0.00","0.00"
"09:29:58","43.3","35.8","74.4","30.08","356","1.4","4.6","0.00","0.00"
"09:34:59","43.6","35.7","73.6","30.08","31","1","3.6","0.00","0.00"
"09:39:56","43.8","35.7","73","30.08","44","0.3","2.4","0.00","0.00"
"09:44:59","43.8","35.7","73","30.08","56","1.2","7.2","0.00","0.00"
"09:49:56","43.7","35.6","72.9","30.06","76","2","7.2","0.00","0.00"
"09:54:59","43.8","35.6","72.7","30.06","91","1.6","4.8","0.00","0.00"
"09:59:58","43.8","35.5","72.2","30.06","42","1.9","4.6","0.00","0.00"
"10:04:59","43.8","35.6","72.8","30.06","71","2.5","6","0.00","0.00"
"10:09:58","43.6","35.9","74","30.06","91","2.9","6","0.00","0.00"
"10:14:57","43.4","36.2","75.7","30.07","86","1.6","3.6","0.00","0.00"
"10:19:58","43.2","36.6","77.1","30.07","84","2.1","4.8","0.00","0.00"
"10:24:58","43.1","36.7","78","30.07","107","2.6","4.8","0.00","0.00"
"10:29:57","43","36.9","79","30.07","96","2.7","4.8","0.01","0.01"
"10:34:59","43","37.4","80.5","30.05","83","1.2","3.6","0.01","0.01"
"10:39:59","42.9","37.6","81.5","30.05","79","2.1","4.8","0.02","0.01"
"10:44:58","42.7","37.6","81.9","30.05","83","2.7","6","0.02","0.02"
"10:49:58","42.6","37.5","82","30.03","87","2.2","6","0.02","0.02"
"10:54:58","42.4","37.5","82.5","30.03","97","2.7","4.8","0.02","0.02"
"10:59:57","42.4","37.3","82","30.03","75","3.4","7.2","0.02","0.02"
"11:04:58","42.3","37","81.3","30.02","94","4.2","8.4","0.02","0.02"
"11:09:57","42.3","37.1","81.6","30.02","95","3.8","7.2","0.02","0.02"
"11:14:57","42.2","36.9","81.3","30.02","88","4.5","8.4","0.02","0.02"
"11:19:58","42.2","36.8","81","30.01","72","3.4","7.2","0.02","0.02"
"11:24:57","42.1","36.7","81","30.01","81","3.2","7.2","0.03","0.03"
"11:29:56","42","36.4","80.2","30.01","100","5.7","10.8","0.03","0.03"
"11:34:57","41.7","35.5","78.3","30.00","90","6.6","12","0.03","0.02"
"11:39:57","41.5","35.7","79.6","30.00","96","4.4","8.4","0.03","0.02"
"11:44:56","41.3","35.7","80.2","30.00","88","4","7.2","0.03","0.01"
"11:49:58","41.2","35.7","80.5","30.00","88","3.8","7.2","0.03","0.01"
"11:54:57","41.1","35.7","81","30.00","92","3.9","7.2","0.03","0.01"
"11:59:56","40.9","35.7","81.8","30.00","104","4.4","8.4","0.04","0.02"
"12:04:57","40.8","35.8","82.6","29.98","95","3.1","6.9","0.04","0.02"
"12:09:56","40.7","36.1","83.8","29.98","118","2.8","6","0.04","0.02"
"12:14:59","40.6","36","83.8","29.99","99","3.4","6","0.04","0.02"
"12:19:58","40.5","36.2","84.6","29.99","96","0.8","2.4","0.04","0.02"
"12:24:58","40.5","36.3","85","29.99","104","2.2","4.8","0.05","0.02"
"12:29:59","40.4","36.2","85","29.99","112","1.9","4.8","0.05","0.02"
"12:34:58","40.3","36.1","85","29.98","112","2.4","4.6","0.05","0.02"
"12:39:58","40.2","36.3","86","29.98","109","2.6","6","0.05","0.02"
"12:44:57","40.2","36.3","86","29.98","116","2.5","5.8","0.05","0.02"
"12:49:59","40.1","36.2","86","29.97","114","2.1","6","0.05","0.02"
"12:54:58","40.1","36.5","86.9","29.97","116","1.3","3.6","0.05","0.02"
"12:59:57","40.1","36.3","86.3","29.98","105","2.3","6","0.05","0.02"
"13:04:59","40.2","36.3","86","29.98","93","1.2","3.6","0.05","0.01"
"13:09:57","40.2","36.3","85.9","29.98","104","2.4","7.2","0.05","0.01"
"13:14:58","40.2","36.4","86.2","29.98","102","2.4","6","0.06","0.02"
"13:19:59","40.2","37","88.1","29.97","98","0.1","1.2","0.07","0.03"
"13:24:59","40.2","37.1","88.6","29.97","94","0.5","2.4","0.07","0.03"
"13:29:59","40.1","37.1","89","29.97","89","0.9","3.6","0.07","0.02"
"13:34:57","40","37","89","29.95","99","1.3","4.8","0.07","0.02"
"13:39:58","40","37","89","29.95","93","1.2","3.6","0.07","0.02"
"13:44:57","39.9","36.9","89","29.95","88","0.7","3.5","0.07","0.02"
"13:49:58","39.9","36.8","88.8","29.95","75","1.2","2.4","0.07","0.02"
"13:54:58","39.8","36.6","88.4","29.95","86","2.2","6","0.07","0.02"
"13:59:57","39.6","36.3","88","29.95","77","2.8","5.8","0.07","0.02"
"14:04:56","39.5","36.3","88.3","29.95","98","2.5","7.2","0.07","0.02"
"14:09:59","39.4","36.1","88","29.95","99","2.8","7.2","0.07","0.02"
"14:14:59","39.4","36.2","88.3","29.95","104","4","8.4","0.07","0.02"
"14:19:57","39.3","36.2","88.8","29.95","103","2.4","5.8","0.07","0.01"
"14:24:56","39.1","36.1","89","29.95","105","4.3","7.2","0.07","0.00"
"14:29:56","39","36.2","89.6","29.95","104","4.8","7.2","0.07","0.00"
"14:34:57","38.9","36.2","90","29.94","101","4.2","7.2","0.07","0.00"
"14:39:57","38.8","36.4","90.9","29.94","104","3.3","7.2","0.07","0.00"
"14:44:57","38.8","36.5","91.4","29.94","101","2.6","6","0.08","0.01"
"14:49:57","38.7","36.6","92","29.93","97","2.9","5.8","0.08","0.01"
"14:54:57","38.7","36.6","92","29.93","112","2.1","4.8","0.08","0.01"
"14:59:57","38.7","36.9","92.9","29.93","108","1.5","4.8","0.08","0.01"
"15:04:56","38.8","36.9","93","29.91","103","2.7","6","0.08","0.01"
"15:09:59","38.8","36.9","93","29.91","109","3.7","7.2","0.08","0.01"
"15:14:58","38.8","36.9","93","29.91","108","2.9","6","0.09","0.02"
"15:19:57","38.8","36.9","93","29.89","122","3.1","7.2","0.09","0.02"
"15:24:56","38.8","36.9","93","29.89","117","3","6","0.09","0.02"
"15:29:56","38.8","36.9","93","29.89","98","2.8","4.8","0.09","0.02"
"15:34:57","38.7","37.1","93.8","29.87","88","2.5","7.2","0.09","0.02"
"15:39:57","38.7","37.1","94","29.87","97","1.7","6.9","0.09","0.02"
"15:44:56","38.7","37.1","94","29.87","85","2.8","8.4","0.09","0.02"
"15:49:59","38.6","37","94","29.85","104","4","10.8","0.09","0.01"
"15:54:59","38.6","37","94","29.85","103","2.8","6","0.09","0.01"
"15:59:58","38.6","37","94","29.85","118","2.4","6","0.09","0.01"
"16:04:57","38.5","36.9","94","29.83","99","3.5","7.2","0.09","0.01"
"16:09:55","38.4","36.8","94","29.83","92","4.5","12","0.10","0.02"
"16:14:59","38.4","36.8","94","29.83","102","2.8","6.9","0.10","0.02"
"16:19:57","38.3","36.7","94","29.83","106","2.6","7.2","0.11","0.01"
"16:24:57","38.4","36.8","94","29.83","80","2.4","7.2","0.11","0.02"
"16:29:56","38.3","36.7","94","29.83","125","2.9","6.9","0.11","0.02"
"16:34:59","38.3","36.7","94","29.83","114","2.7","6","0.11","0.02"
"16:39:59","38.3","36.7","94","29.83","110","2.5","4.8","0.12","0.03"
"16:44:59","38.3","36.8","94.3","29.83","123","2.2","6","0.13","0.03"
"16:49:57","38.3","37","95","29.82","118","2.1","4.8","0.13","0.04"
"16:54:57","38.4","37.1","95","29.82","104","1.1","3.6","0.13","0.04"
"16:59:57","38.4","37.1","95","29.82","108","2","4.8","0.13","0.04"
"17:04:56","38.5","37.2","95","29.79","110","2.1","4.8","0.14","0.05"
"17:09:59","38.6","37.3","95","29.79","120","3.4","7.2","0.14","0.05"
"17:14:58","38.6","37.3","95","29.79","113","4.1","9.6","0.15","0.05"
"17:19:58","38.6","37.3","95","29.77","113","2","4.6","0.15","0.05"
"17:24:57","38.7","37.4","95","29.77","113","2.5","4.8","0.15","0.04"
"17:29:58","38.8","37.5","95","29.78","105","2.9","6","0.16","0.05"
"17:34:56","38.9","37.6","95","29.78","116","2.1","5.8","0.16","0.05"
"17:39:57","38.9","37.6","95","29.78","86","2.4","4.8","0.17","0.06"
"17:44:57","39.1","37.8","95","29.79","91","2.2","4.8","0.17","0.05"
"17:49:57","39.1","37.8","95","29.79","101","2.6","6","0.18","0.05"
"17:54:58","39.2","37.9","95","29.79","111","3","6","0.19","0.06"
"17:59:58","39.2","37.9","95","29.79","120","3.8","6","0.19","0.06"
"18:04:56","39.2","37.9","95","29.77","113","4.3","7.2","0.20","0.06"
"18:09:59","39.3","38","95","29.77","112","5.4","13.2","0.20","0.06"
"18:14:56","39.4","38.1","95","29.77","99","3.6","12","0.21","0.06"
"18:19:58","39.5","38.2","95","29.76","121","3.8","6.9","0.21","0.06"
"18:24:57","39.5","38.2","95","29.76","106","4.1","7.2","0.21","0.06"
"18:29:57","39.4","38.1","95","29.76","106","4.9","8.4","0.21","0.06"
"18:34:56","39.4","38.1","95","29.72","112","5.5","10.8","0.22","0.06"
"18:39:57","39.3","38","95","29.72","116","4.4","10.8","0.23","0.06"
"18:44:56","39.3","38","95","29.72","112","4.9","10.8","0.23","0.06"
"18:49:57","39.2","37.9","95","29.69","110","3.8","8.4","0.23","0.06"
"18:54:57","39.2","37.9","95","29.69","112","3.9","8.1","0.24","0.06"
"18:59:57","39.3","38","95","29.69","116","4","7.2","0.24","0.05"
"19:04:59","39.3","38","95","29.66","121","3.8","9.6","0.25","0.06"
"19:09:58","39.4","38.1","95","29.66","115","3.6","12","0.25","0.05"
"19:14:58","39.4","38.1","95","29.66","108","4.4","12","0.25","0.05"
"19:19:57","39.5","38.2","95","29.65","122","4.6","8.4","0.26","0.05"
"19:24:56","39.6","38.3","95","29.65","115","5","10.8","0.26","0.05"
"19:29:57","39.6","38.3","95","29.65","110","4","10.4","0.26","0.05"
"19:34:58","39.7","38.4","95","29.63","127","2.4","8.4","0.26","0.05"
"19:39:59","39.8","38.5","95","29.63","136","2.7","8.1","0.26","0.04"
"19:44:59","39.8","38.5","95","29.63","111","2.7","7.2","0.26","0.03"
"19:49:57","39.9","38.8","95.5","29.61","110","2.1","7.2","0.27","0.04"
"19:54:57","40","38.9","95.7","29.61","131","3.5","7.2","0.28","0.04"
"19:59:57","40","38.8","95.5","29.61","104","2.4","4.8","0.28","0.04"
"20:04:56","40.1","39.1","96","29.58","105","4.1","8.4","0.28","0.04"
"20:09:59","40.2","39.2","96","29.58","111","3.6","6","0.29","0.04"
"20:14:59","40.2","39.2","96","29.58","102","3.4","8.4","0.29","0.04"
"20:19:56","40.3","39.3","96","29.54","95","3.2","7.2","0.30","0.04"
"20:24:56","40.4","39.4","96","29.54","115","4.5","8.4","0.31","0.05"
"20:29:57","40.5","39.4","96","29.54","114","2.3","8.1","0.32","0.05"
"20:34:59","40.6","39.5","96","29.53","107","1.7","6","0.33","0.07"
"20:39:56","40.8","39.7","96","29.53","106","1.9","5.8","0.36","0.09"
"20:44:57","40.9","39.8","96","29.53","117","3.3","7.2","0.38","0.11"
"20:49:56","41","39.9","96","29.51","126","0.9","6.9","0.38","0.12"
"20:54:56","41","39.9","96","29.51","126","1.4","3.6","0.39","0.12"
"20:59:57","41.1","40","96","29.51","127","1.1","2.4","0.39","0.11"
"21:04:57","41.1","40","96","29.50","126","0.4","2.4","0.40","0.12"
"21:09:56","41.3","40.2","96","29.50","126","1.1","3.6","0.40","0.12"
"21:14:57","41.4","40.3","96","29.50","126","0.1","1.2","0.41","0.12"
"21:19:56","41.5","40.4","96","29.48","126","0","0","0.41","0.12"
"21:24:57","41.5","40.4","96","29.48","126","0","0","0.42","0.12"
"21:29:58","41.5","40.4","96","29.48","126","0","0","0.42","0.11"
"21:34:57","41.5","40.4","96","29.46","126","0","0","0.42","0.10"
"21:39:58","41.6","40.5","96","29.46","126","0","0","0.43","0.09"
"21:44:59","41.6","40.5","96","29.46","328","1.8","6","0.43","0.07"
"21:49:58","41.5","40.4","96","29.45","284","1.2","4.8","0.44","0.06"
"21:54:59","41.5","40.4","96","29.45","285","1.6","3.6","0.45","0.06"
"21:59:56","41.5","40.4","96","29.45","282","2.5","6","0.46","0.06"
"22:04:58","41.4","40.3","96","29.43","318","3.1","6","0.48","0.07"
"22:09:56","41.3","40.2","96","29.43","315","5.9","16.8","0.50","0.10"
"22:14:57","41.2","40.1","96.2","29.46","322","6.2","17.3","0.52","0.11"
"22:19:56","41","39.9","96","29.46","320","6.1","13.2","0.55","0.13"
"22:24:57","40.8","39.7","96","29.46","327","6.9","15","0.57","0.14"
"22:29:57","40.6","39.5","96","29.47","314","6.1","17.3","0.59","0.16"
"22:34:57","40.6","39.5","96","29.47","325","7.9","17.3","0.62","0.20"
"22:39:57","40.6","39.5","96","29.47","302","6.4","13.2","0.62","0.20"
"22:44:58","40.6","39.5","96","29.48","304","5.1","15","0.64","0.21"
"22:49:57","40.5","39.4","96","29.48","306","5.6","15.6","0.64","0.21"
"22:54:58","40.4","39.4","96","29.48","324","6.4","19.6","0.65","0.21"
"22:59:58","40.2","39.1","95.7","29.48","332","6.5","19.6","0.66","0.21"
"23:04:59","40.1","39.1","96","29.46","332","4.4","11.5","0.67","0.21"
"23:09:58","40","39","96","29.46","2","1.7","9.2","0.67","0.19"
"23:14:59","39.9","38.8","95.6","29.46","43","1.7","8.4","0.67","0.17"
"23:19:58","39.9","38.7","95.4","29.38","13","1.1","4.6","0.67","0.15"
"23:24:58","39.9","38.9","96","29.38","45","1.3","4.8","0.67","0.12"
"23:29:59","39.9","38.7","95.2","29.39","343","2","4.8","0.67","0.10"
"23:34:58","40","38.7","95","29.39","247","0.8","3.5","0.67","0.08"
"23:39:59","40","38.7","95","29.39","253","0.7","3.6","0.67","0.05"
"23:44:56","40","38.9","95.7","29.39","305","1.3","4.8","0.67","0.05"
"23:49:56","39.9","38.9","96","29.37","310","0.4","3.6","0.67","0.03"
